• Join FlightAware (Why Join?)
  • Login
  • US Flag 
07:00PM EST


 

Airport Tracker/Info


-or-


 

Live Flight TrackerFlight Track Log ✈ N93XP ✈ 12-Jul-2013 ✈ CYWG - CYNL

Flight Track Log - Related Links

Times and Time Zones

All times are in EDT time to prevent confusion due to time zone crossing. See the N93XP flight status page for this flight to view local times or setup timezone preferences in your user account.

Time Position Orientation Groundspeed Altitude Reporting Facility
EDT Latitude Longitude Course Direction KTS MPH feet Rate Location/Type
08:18AM 49.8500 -97.2333 332° Northwest 220 253 2,800  Level Winnipeg Center
08:19AM 49.7833 -97.2000 162° South 240 276 4,400 1,200 Climbing Winnipeg Center
08:20AM 49.7167 -97.2167 189° South 220 253 5,200 1,020 Climbing Winnipeg Center
08:21AM 49.7500 -97.2833 308° West 260 299 6,500 1,200 Climbing Winnipeg Center
08:22AM 49.8333 -97.3000 353° North 300 345 7,600 960 Climbing Winnipeg Center
08:23AM 50.4198 -97.6860 332° Northwest  Level FlightAware Approximate
08:23AM 49.9167 -97.3333 346° North 300 345 8,500  Level Winnipeg Center
08:24AM 49.9833 -97.4000 327° Northwest 310 357 9,400 900 Climbing Winnipeg Center
08:25AM 50.0667 -97.4833 327° Northwest 310 357 10,300 900 Climbing Winnipeg Center
08:26AM 50.1333 -97.5667 321° Northwest 320 368 11,200 900 Climbing Winnipeg Center
08:27AM 50.2167 -97.6167 339° North 330 380 12,100 840 Climbing Winnipeg Center
08:28AM 50.3000 -97.7000 327° Northwest 340 391 12,900 900 Climbing Winnipeg Center
08:29AM 50.3833 -97.7833 327° Northwest 350 403 13,900 840 Climbing Winnipeg Center
08:30AM 50.4667 -97.8333 339° North 350 403 14,600 660 Climbing Winnipeg Center
08:31AM 50.5667 -97.9167 332° Northwest 360 414 15,300 660 Climbing Winnipeg Center
08:32AM 50.6667 -97.9167 360° North 380 437 16,000 600 Climbing Winnipeg Center
08:33AM 50.7667 -97.9500 348° North 390 449 16,600 600 Climbing Winnipeg Center
08:34AM 50.8833 -97.9667 355° North 390 449 17,300 780 Climbing Winnipeg Center
08:35AM 50.9833 -98.0333 337° Northwest 380 437 18,200 780 Climbing Winnipeg Center
08:36AM 51.0833 -98.1167 332° Northwest 380 437 18,900 600 Climbing Winnipeg Center
08:37AM 51.1833 -98.1333 354° North 370 426 19,500 540 Climbing Winnipeg Center
08:38AM 51.2833 -98.2000 337° Northwest 370 426 20,000 480 Climbing Winnipeg Center
08:39AM 51.3833 -98.2500 343° North 380 437 20,500 420 Climbing Winnipeg Center
08:40AM 51.4833 -98.3167 337° Northwest 380 437 20,900 420 Climbing Winnipeg Center
08:41AM 51.5833 -98.3667 343° North 380 437 21,400 480 Climbing Winnipeg Center
08:42AM 51.6833 -98.4167 343° North 380 437 21,900 420 Climbing Winnipeg Center
08:43AM 51.7833 -98.4833 338° Northwest 380 437 22,300 420 Climbing Winnipeg Center
08:44AM 51.8833 -98.5333 343° North 390 449 22,800 420 Climbing Winnipeg Center
08:45AM 51.9833 -98.6000 338° Northwest 390 449 23,200 420 Climbing Winnipeg Center
08:46AM 52.0833 -98.6833 333° Northwest 390 449 23,700 480 Climbing Winnipeg Center
08:47AM 52.1500 -98.7667 323° Northwest 370 426 24,200 480 Climbing Winnipeg Center
08:48AM 52.2500 -98.8833 324° Northwest 380 437 24,700 480 Climbing Winnipeg Center
08:49AM 52.3167 -98.9833 317° Northwest 380 437 25,200 480 Climbing Winnipeg Center
08:50AM 52.4167 -99.0833 329° Northwest 380 437 25,700 420 Climbing Winnipeg Center
08:51AM 52.5167 -99.1667 333° Northwest 400 460 26,100 420 Climbing Winnipeg Center
08:52AM 52.6167 -99.2500 333° Northwest 400 460 26,600 480 Climbing Winnipeg Center
08:53AM 52.7167 -99.3167 338° Northwest 400 460 27,100 480 Climbing Winnipeg Center
08:54AM 52.8333 -99.4000 337° Northwest 390 449 27,600 420 Climbing Winnipeg Center
08:55AM 52.9167 -99.4667 334° Northwest 400 460 28,000 180 Climbing Winnipeg Center
08:56AM 53.0333 -99.5500 337° Northwest 400 460 28,000  Level Winnipeg Center
08:57AM 53.1333 -99.6500 329° Northwest 420 483 28,000  Level Winnipeg Center
08:58AM 53.2500 -99.7000 346° North 410 472 28,000  Level Winnipeg Center
08:59AM 53.3500 -99.8000 329° Northwest 410 472 28,000  Level Winnipeg Center
09:00AM 53.4667 -99.8667 341° North 440 506 28,000  Level Winnipeg Center
09:01AM 53.5667 -99.9500 334° Northwest 420 483 28,000  Level Winnipeg Center
09:02AM 53.6667 -100.0500 329° Northwest 440 506 28,000  Level Winnipeg Center
09:03AM 53.7833 -100.1333 337° Northwest 450 518 28,000  Level Winnipeg Center
09:04AM 53.9000 -100.2000 341° North 450 518 28,000  Level Winnipeg Center
09:05AM 54.0167 -100.3000 333° Northwest 460 529 28,000  Level Winnipeg Center
09:06AM 54.1333 -100.4000 333° Northwest 450 518 28,000  Level Winnipeg Center
09:07AM 54.2500 -100.4833 337° Northwest 450 518 28,000  Level Winnipeg Center
09:08AM 54.3667 -100.5833 333° Northwest 450 518 28,000  Level Winnipeg Center
09:09AM 54.4833 -100.6833 334° Northwest 450 518 28,000  Level Winnipeg Center
09:10AM 54.5833 -100.7833 330° Northwest 450 518 28,000  Level Winnipeg Center
09:11AM 54.7000 -100.8500 342° North 440 506 28,000  Level Winnipeg Center
09:12AM 54.8000 -100.9500 330° Northwest 440 506 28,000  Level Winnipeg Center
09:13AM 54.9167 -101.0333 338° Northwest 440 506 28,000  Level Winnipeg Center
09:14AM 55.0333 -101.1167 338° Northwest 430 495 28,000  Level Winnipeg Center
09:15AM 55.1500 -101.2167 334° Northwest 430 495 28,000  Level Winnipeg Center
09:16AM 55.2500 -101.3167 330° Northwest 440 506 28,000  Level Winnipeg Center
09:17AM 55.3500 -101.4167 330° Northwest 430 495 28,000  Level Winnipeg Center
09:18AM 55.4667 -101.4833 342° North 440 506 28,000  Level Winnipeg Center
09:19AM 55.5833 -101.5833 334° Northwest 430 495 28,000  Level Winnipeg Center
09:20AM 55.6833 -101.6833 331° Northwest 420 483 28,000  Level Winnipeg Center
09:21AM 55.7833 -101.7500 339° North 420 483 28,000  Level Winnipeg Center
09:22AM 55.9000 -101.8500 334° Northwest 410 472 28,000  Level Winnipeg Center
09:23AM 55.9833 -101.9667 322° Northwest 420 483 28,000  Level Winnipeg Center
09:24AM 56.1000 -102.0333 342° North 410 472 28,000  Level Winnipeg Center
09:25AM 56.2000 -102.1333 331° Northwest 410 472 28,000  Level Winnipeg Center
09:26AM 56.3167 -102.2500 331° Northwest 420 483 28,000  Level Winnipeg Center
09:27AM 56.4167 -102.3167 340° North 420 483 28,000  Level Winnipeg Center
09:28AM 56.5000 -102.4167 326° Northwest 420 483 28,000  Level Winnipeg Center
09:29AM 56.6167 -102.5333 331° Northwest 420 483 28,000  Level Winnipeg Center
09:30AM 56.7333 -102.6000 343° North 420 483 28,000  Level Winnipeg Center
09:31AM 56.8333 -102.7167 327° Northwest 420 483 28,000  Level Winnipeg Center
09:32AM 56.9333 -102.7833 340° North 410 472 28,000  Level Winnipeg Center
09:33AM 57.0167 -102.9000 323° Northwest 410 472 28,000 -240 Level Winnipeg Center
09:34AM 57.1333 -103.0000 335° Northwest 400 460 27,600 -960 Descending Winnipeg Center
09:35AM 57.2333 -103.0833 336° Northwest 420 483 26,100 -2,100 Descending Winnipeg Center
09:36AM 57.3500 -103.2000 332° Northwest 430 495 23,500 -2,760 Descending Winnipeg Center
09:37AM 57.4333 -103.3000 327° Northwest 400 460 20,600 -3,060 Descending Winnipeg Center
09:38AM 57.5333 -103.3833 336° Northwest 380 437 17,400 -3,000 Descending Winnipeg Center
09:39AM 57.6167 -103.4667 332° Northwest 360 414 14,700 -2,700 Descending Winnipeg Center
09:40AM 57.7000 -103.5333 337° Northwest 340 391 12,000 -2,520 Descending Winnipeg Center
09:41AM 57.7833 -103.6167 332° Northwest 320 368 9,700 -1,740 Descending Winnipeg Center
09:42AM 57.8333 -103.6833 325° Northwest 290 334 8,600 -1,080 Descending Winnipeg Center
09:43AM 57.9167 -103.7667 332° Northwest 270 311 7,600 -960 Descending Winnipeg Center
09:44AM 57.9833 -103.7833 352° North 280 322 6,700 -900 Descending Winnipeg Center
09:45AM 58.0667 -103.8167 348° North 270 311 5,800 -900 Descending Winnipeg Center
09:47AM 58.2232 -104.0231 332° Northwest  Level FlightAware Approximate
09:54AM 58.2667 -104.0667 332° Northwest  Level FlightAware Approximate
09:55AM 58.2833 -104.0833 332° Northwest  Level Estimated
09:56AM 58.2833 -104.0833 332° Northwest  Level Estimated
09:57AM 58.2833 -104.0833 332° Northwest  Level Estimated
09:58AM 58.2833 -104.0833 332° Northwest  Level Estimated
09:59AM 58.2833 -104.0833 332° Northwest  Level Estimated
10:00AM 58.2833 -104.0833 332° Northwest  Level Estimated
10:01AM 58.2833 -104.0833 332° Northwest  Level Estimated
10:02AM 58.2833 -104.0833 332° Northwest  Level Estimated
10:03AM 58.2833 -104.0833 332° Northwest  Level Estimated
10:04AM 58.2833 -104.0833 332° Northwest  Level Estimated
10:05AM 58.2833 -104.0833 332° Northwest  Level Estimated
10:06AM 58.2833 -104.0833 332° Northwest  Level Estimated
10:07AM 58.2833 -104.0833 332° Northwest  Level Estimated
10:08AM 58.2833 -104.0833 332° Northwest  Level Estimated
10:09AM 58.2833 -104.0833 332° Northwest  Level Estimated